Location: *
(51.1248°S, 108.4023°W)
Time: 00:30:19
(UTC+00:00)

N. Korean satellite - Pass Details

Date: 06 October 2021
Orbit: 450 x 495 km, 97.3° (Epoch: 24 October)

Event Time Altitude Azimuth Distance (km) Brightness Sun altitude
Rises 11:19:22 0° 21° (NNE) 2,577 10.2 -11.4°
Reaches altitude 10° 11:21:27 10° 23° (NNE) 1,697 9.3 -11.1°
Maximum altitude 11:25:05 70° 106° (ESE) 533 7.0 -10.6°
Drops below altitude 10° 11:28:44 10° 189° (S) 1,699 9.5 -10.1°
Sets 11:30:49 0° 191° (S) 2,580 10.4 -9.7°
